This demonstration page uses our WeatherBlox Daily Observations layout. Learn more.

Left ArrowRight Arrow

39.01783, -85.05884

Hourly Observations for October 25, 2016

Temp ( °F °C ) Dew Point ( °F °C ) Humidity (%) Winds ( mph kmh ) Pressure ( in mb ) Visibility ( mi km ) Precip ( " mm )
12:52 am 00:52 Clear 48 8.9 41 5 77 77 N 5 7 30.35 1028 10 16 0.00 0.00
1:52 am 01:52 Clear 46 7.8 41 5 83 83 N 8 13 30.36 1028 10 16 0.00 0.00
2:52 am 02:52 Clear 45 7.2 40 4.4 83 83 N 6 9 30.35 1028 10 16 0.00 0.00
3:52 am 03:52 Clear 46 7.8 39 3.9 77 77 NNE 6 9 30.35 1028 10 16 0.00 0.00
4:52 am 04:52 Clear 43 6.1 38 3.3 82 82 NNE 5 7 30.35 1028 10 16 0.00 0.00
5:52 am 05:52 Clear 43 6.1 38 3.3 82 82 NNE 3 6 30.36 1028 10 16 0.00 0.00
6:52 am 06:52 Mostly Clear 44 6.7 39 3.9 83 83 NNE 3 6 30.37 1029 10 16 0.00 0.00
7:52 am 07:52 Mostly Cloudy 42 5.6 38 3.3 85 85 NNE 5 7 30.39 1029 10 16 0.00 0.00
8:52 am 08:52 Mostly Cloudy 44 6.7 39 3.9 83 83 NE 7 11 30.40 1030 10 16 0.00 0.00
9:52 am 09:52 Mostly Cloudy 47 8.3 41 5 80 80 E 5 7 30.41 1030 10 16 0.00 0.00
10:52 am 10:52 Mostly Cloudy 50 10 42 5.6 74 74 ENE 5 7 30.41 1030 10 16 0.00 0.00
12:52 pm 12:52 Mostly Cloudy 56 13.3 42 5.6 60 60 ENE 5 7 30.40 1030 10 16 0.00 0.00
1:52 pm 13:52 Mostly Cloudy 59 15 42 5.6 54 54 NNE 3 6 30.37 1029 10 16 0.00 0.00
2:52 pm 14:52 Mostly Cloudy 59 15 41 5 51 51 N 6 9 30.35 1028 10 16 0.00 0.00
3:52 pm 15:52 Mostly Cloudy 59 15 38 3.3 46 46 ENE 6 9 30.34 1028 10 16 0.00 0.00
4:52 pm 16:52 Mostly Cloudy 58 14.4 40 4.4 51 51 ENE 9 15 30.34 1027 10 16 0.00 0.00
5:52 pm 17:52 Mostly Cloudy 57 13.9 39 3.9 51 51 NE 7 11 30.33 1027 10 16 0.00 0.00
6:52 pm 18:52 Partly Cloudy 54 12.2 40 4.4 59 59 E 6 9 30.33 1027 10 16 0.00 0.00
7:52 pm 19:52 Mostly Cloudy 55 12.8 40 4.4 57 57 NE 10 17 30.35 1028 10 16 0.00 0.00
8:52 pm 20:52 Mostly Clear 52 11.1 40 4.4 64 64 E 10 17 30.35 1028 10 16 0.00 0.00
9:52 pm 21:52 Mostly Clear 50 10 39 3.9 66 66 E 8 13 30.35 1028 10 16 0.00 0.00
10:52 pm 22:52 Mostly Clear 50 10 39 3.9 66 66 E 12 19 30.35 1028 10 16 0.00 0.00
11:52 pm 23:52 Partly Cloudy 47 8.3 39 3.9 74 74 E 7 11 30.35 1028 10 16 0.00 0.00

Powered by AerisWeather